Location: Cella
(44.7333°N, 10.5667°E)
Time: 13:09:47
(UTC+00:00)

COSMOS 1867 COOLANT - Pass Details

Date: 25 September 2021
Orbit: 770 x 802 km, 65.0° (Epoch: 15 October)

Event Time Altitude Azimuth Distance (km) Brightness Sun altitude
Rises 21:19:45 0° 320° (NW) 3,319 ? -40.2°
Reaches altitude 10° 21:22:17 10° 314° (NW) 2,383 ? -40.5°
Enters shadow 21:23:50 19° 306° (NW) 1,846 ? -40.6°
